Flag for U.S.A. Weather past 2 weeks in Green Bay, Wisconsin, U.S.A.

Now
54 °F

Clear.


Feels Like: 50 °F
Forecast: 46 / 61 °F
Wind: 14 mph from Southwest

Location: Austin Straubel International Airport

Current Time: Apr 2, 2015 at 5:33:04 AM

Latest Report: Apr 2, 2015 at 4:53 AM


Visibility: 10 mi

Pressure: 29.58 "Hg

Humidity: 62%

Dew point: 41 °F

Location of Green BayLocation

Historic Weather in Green Bay — Graph

°F

Green Bay temperature yesterday

Maximum temperature yesterday: 60 °F (at 11:53 PM)
Minimum temperature yesterday: 28 °F (at 6:53 AM)
Average temperature yesterday: 45 °F

Past Weeks' High & Low Weather Summary

 TemperatureHumidityPressure
High60 °F (Apr 1, 11:53 PM)97% (Mar 30, 11:53 PM)30.41 "Hg (Mar 30, 11:53 PM)
Low17 °F (Mar 27, 6:53 AM)35% (Mar 30, 2:53 PM)29.58 "Hg (Mar 29, 3:53 PM)
Average36 °F65%30.09 "Hg
* Reported Mar 18 3:53 AM — Apr 2 3:53 AM, Green Bay, Weather by CustomWeather, © 2015

Note: Actual official high and low records may vary slightly from our data, if they occured in-between our weather recording intervals... More about our weather records

Advertising

Green Bay weather history for previous 24 hours

 ConditionsComfort  
Time TempWeatherWind HumidityBarometerVisibility
3:53 AM
Thu, Apr 2
55 °FClear.17 mph59%29.60 "Hg10 mi
2:53 AM55 °FPassing clouds.15 mph59%29.65 "Hg10 mi
1:53 AM57 °FClear.18 mph55%29.65 "Hg10 mi
12:53 AM58 °FClear.14 mph54%29.66 "Hg10 mi
11:53 PM
Wed, Apr 1
60 °FClear.16 mph47%29.67 "Hg10 mi
10:53 PM56 °FClear.15 mph55%29.67 "Hg10 mi
9:53 PM56 °FClear.16 mph55%29.68 "Hg10 mi
8:53 PM55 °FClear.14 mph57%29.70 "Hg10 mi
7:53 PM55 °FSunny.14 mph57%29.71 "Hg9 mi
6:53 PM55 °FSunny.17 mph57%29.75 "Hg7 mi
5:53 PM56 °FSunny.15 mph58%29.77 "Hg7 mi
4:53 PM57 °FSunny.17 mph55%29.80 "Hg10 mi
3:53 PM56 °FSunny.22 mph53%29.84 "Hg10 mi
2:53 PM57 °FSunny.17 mph49%29.88 "Hg10 mi
1:53 PM56 °FSunny.16 mph51%29.93 "Hg10 mi
12:53 PM53 °FPassing clouds.14 mph56%29.98 "Hg10 mi
11:53 AM49 °FSunny.13 mph64%30.03 "Hg10 mi
10:53 AM44 °FPartly sunny.9 mph73%30.06 "Hg10 mi
9:53 AM40 °FPartly sunny.3 mph80%30.08 "Hg7 mi
8:53 AM36 °FFog.5 mph89%30.07 "Hg6 mi
7:53 AM34 °FFog.6 mph92%30.05 "Hg5 mi
6:53 AM28 °FIce fog.3 mph96%30.04 "Hg4 mi
5:53 AM29 °FClear.No wind96%30.03 "Hg7 mi
Weather by CustomWeather, © 2015

See weather overviewHow to use our weather pages